owner,sensor,date,latitude,longitude,vertical_datum,wind_speed,wind_to_direction,wind_speed_of_gust,qcFlag 
ADCP,ioos:station:wmo:42887:1,2015-03-01T00:00:00Z,28.1910,-88.4960,48.2,8.4,74.0,99.0,'11111222,11111222,11144222' 
ADCP,ioos:station:wmo:42887:1,2015-03-01T00:20:00Z,28.1910,-88.4960,48.2,8.7,78.0,99.0,'11111222,11111222,11144222' 
ADCP,ioos:station:wmo:42887:1,2015-03-01T00:40:00Z,28.1910,-88.4960,48.2,8.3,75.0,99.0,'11111222,11111222,11144222' 
ADCP,ioos:station:wmo:42887:1,2015-03-01T01:00:00Z,28.1910,-88.4960,48.2,8.1,81.0,99.0,'11111222,11111222,11144222' 
ADCP,ioos:station:wmo:42887:1,2015-03-01T01:20:00Z,28.1910,-88.4960,48.2,8.1,74.0,99.0,'11111222,11111222,11144222' 
ADCP,ioos:station:wmo:42887:1,2015-03-01T01:40:00Z,28.1910,-88.4960,48.2,7.3,77.0,99.0,'11111222,11111222,11144222' 
ADCP,ioos:station:wmo:42887:1,2015-03-01T02:00:00Z,28.1910,-88.4960,48.2,6.1,86.0,99.0,'11111222,11111222,11144222' 
ADCP,ioos:station:wmo:42887:1,2015-03-01T02:20:00Z,28.1910,-88.4960,48.2,6.9,88.0,99.0,'11111222,11111222,11144222' 
ADCP,ioos:station:wmo:42887:1,2015-03-01T02:40:00Z,28.1910,-88.4960,48.2,7.1,83.0,99.0,'11111222,11111222,11144222' 
ADCP,ioos:station:wmo:42887:1,2015-03-01T03:00:00Z,28.1910,-88.4960,48.2,6.7,89.0,99.0,'11111222,11111222,11144222' 
ADCP,ioos:station:wmo:42887:1,2015-03-01T03:20:00Z,28.1910,-88.4960,48.2,7.5,80.0,99.0,'11111222,11111222,11144222' 
ADCP,ioos:station:wmo:42887:1,2015-03-01T03:40:00Z,28.1910,-88.4960,48.2,7.7,85.0,99.0,'11111222,11111222,11144222' 
ADCP,ioos:station:wmo:42887:1,2015-03-01T04:00:00Z,28.1910,-88.4960,48.2,8.0,85.0,99.0,'11111222,11111222,11144222' 
ADCP,ioos:station:wmo:42887:1,2015-03-01T04:20:00Z,28.1910,-88.4960,48.2,7.6,84.0,99.0,'11111222,11111222,11144222' 
ADCP,ioos:station:wmo:42887:1,2015-03-01T04:40:00Z,28.1910,-88.4960,48.2,7.5,82.0,99.0,'11111222,11111222,11144222' 
ADCP,ioos:station:wmo:42887:1,2015-03-01T05:00:00Z,28.1910,-88.4960,48.2,7.5,86.0,99.0,'11111222,11111222,11144222' 
ADCP,ioos:station:wmo:42887:1,2015-03-01T05:20:00Z,28.1910,-88.4960,48.2,8.2,86.0,99.0,'11111222,11111222,11144222' 
ADCP,ioos:station:wmo:42887:1,2015-03-01T05:40:00Z,28.1910,-88.4960,48.2,8.7,83.0,99.0,'11111222,11111222,11144222' 
ADCP,ioos:station:wmo:42887:1,2015-03-01T06:00:00Z,28.1910,-88.4960,48.2,8.4,85.0,99.0,'11111222,11111222,11144222' 
ADCP,ioos:station:wmo:42887:1,2015-03-01T06:20:00Z,28.1910,-88.4960,48.2,7.2,86.0,99.0,'11111222,11111222,11144222' 
ADCP,ioos:station:wmo:42887:1,2015-03-01T06:40:00Z,28.1910,-88.4960,48.2,7.8,84.0,99.0,'11111222,11111222,11144222' 
ADCP,ioos:station:wmo:42887:1,2015-03-01T07:00:00Z,28.1910,-88.4960,48.2,8.0,80.0,99.0,'11111222,11111222,11144222' 
ADCP,ioos:station:wmo:42887:1,2015-03-01T07:20:00Z,28.1910,-88.4960,48.2,7.5,85.0,99.0,'11111222,11111222,11144222' 
ADCP,ioos:station:wmo:42887:1,2015-03-01T07:40:00Z,28.1910,-88.4960,48.2,7.0,87.0,99.0,'11111222,11111222,11144222' 
ADCP,ioos:station:wmo:42887:1,2015-03-01T08:00:00Z,28.1910,-88.4960,48.2,7.5,85.0,99.0,'11111222,11111222,11144222' 
ADCP,ioos:station:wmo:42887:1,2015-03-01T08:20:00Z,28.1910,-88.4960,48.2,8.8,85.0,99.0,'11111222,11111222,11144222' 
ADCP,ioos:station:wmo:42887:1,2015-03-01T08:40:00Z,28.1910,-88.4960,48.2,8.2,92.0,99.0,'11111222,11111222,11144222' 
ADCP,ioos:station:wmo:42887:1,2015-03-01T09:00:00Z,28.1910,-88.4960,48.2,8.6,91.0,99.0,'11111222,11111222,11144222' 
ADCP,ioos:station:wmo:42887:1,2015-03-01T09:20:00Z,28.1910,-88.4960,48.2,7.9,89.0,99.0,'11111222,11111222,11144222' 
ADCP,ioos:station:wmo:42887:1,2015-03-01T09:40:00Z,28.1910,-88.4960,48.2,8.2,92.0,99.0,'11111222,11111222,11144222' 
ADCP,ioos:station:wmo:42887:1,2015-03-01T10:00:00Z,28.1910,-88.4960,48.2,8.9,92.0,99.0,'11111222,11111222,11144222' 
ADCP,ioos:station:wmo:42887:1,2015-03-01T10:20:00Z,28.1910,-88.4960,48.2,6.4,89.0,99.0,'11111222,11111222,11144222' 
ADCP,ioos:station:wmo:42887:1,2015-03-01T10:40:00Z,28.1910,-88.4960,48.2,7.9,84.0,99.0,'11111222,11111222,11144222' 
ADCP,ioos:station:wmo:42887:1,2015-03-01T11:00:00Z,28.1910,-88.4960,48.2,8.1,87.0,99.0,'11111222,11111222,11144222' 
ADCP,ioos:station:wmo:42887:1,2015-03-01T11:20:00Z,28.1910,-88.4960,48.2,7.9,86.0,99.0,'11111222,11111222,11144222' 
ADCP,ioos:station:wmo:42887:1,2015-03-01T11:40:00Z,28.1910,-88.4960,48.2,6.7,83.0,99.0,'11111222,11111222,11144222' 
ADCP,ioos:station:wmo:42887:1,2015-03-01T12:00:00Z,28.1910,-88.4960,48.2,7.5,88.0,99.0,'11111222,11111222,11144222' 
ADCP,ioos:station:wmo:42887:1,2015-03-01T12:20:00Z,28.1910,-88.4960,48.2,5.6,92.0,99.0,'11111222,11111222,11144222' 
ADCP,ioos:station:wmo:42887:1,2015-03-01T12:40:00Z,28.1910,-88.4960,48.2,8.0,92.0,99.0,'11111222,11111222,11144222' 
ADCP,ioos:station:wmo:42887:1,2015-03-01T13:00:00Z,28.1910,-88.4960,48.2,9.1,94.0,99.0,'11111222,11111222,11144222' 
ADCP,ioos:station:wmo:42887:1,2015-03-01T13:20:00Z,28.1910,-88.4960,48.2,9.8,91.0,99.0,'11111222,11111222,11144222' 
ADCP,ioos:station:wmo:42887:1,2015-03-01T13:40:00Z,28.1910,-88.4960,48.2,7.0,94.0,99.0,'11111222,11111222,11144222' 
ADCP,ioos:station:wmo:42887:1,2015-03-01T14:00:00Z,28.1910,-88.4960,48.2,4.4,135.0,99.0,'11111222,11111222,11144222' 
ADCP,ioos:station:wmo:42887:1,2015-03-01T14:20:00Z,28.1910,-88.4960,48.2,8.9,129.0,99.0,'11111222,11111222,11144222' 
ADCP,ioos:station:wmo:42887:1,2015-03-01T14:40:00Z,28.1910,-88.4960,48.2,9.0,117.0,99.0,'11111222,11111222,11144222' 
ADCP,ioos:station:wmo:42887:1,2015-03-01T15:00:00Z,28.1910,-88.4960,48.2,7.4,125.0,99.0,'11111222,11111222,11144222' 
ADCP,ioos:station:wmo:42887:1,2015-03-01T15:20:00Z,28.1910,-88.4960,48.2,8.3,124.0,99.0,'11111222,11111222,11144222' 
ADCP,ioos:station:wmo:42887:1,2015-03-01T15:40:00Z,28.1910,-88.4960,48.2,6.9,136.0,99.0,'11111222,11111222,11144222' 
ADCP,ioos:station:wmo:42887:1,2015-03-01T16:00:00Z,28.1910,-88.4960,48.2,6.6,115.0,99.0,'11111222,11111222,11144222' 
ADCP,ioos:station:wmo:42887:1,2015-03-01T16:20:00Z,28.1910,-88.4960,48.2,8.3,118.0,99.0,'11111222,11111222,11144222' 
ADCP,ioos:station:wmo:42887:1,2015-03-01T16:40:00Z,28.1910,-88.4960,48.2,8.7,118.0,99.0,'11111222,11111222,11144222' 
ADCP,ioos:station:wmo:42887:1,2015-03-01T17:00:00Z,28.1910,-88.4960,48.2,8.5,118.0,99.0,'11111222,11111222,11144222' 
ADCP,ioos:station:wmo:42887:1,2015-03-01T17:20:00Z,28.1910,-88.4960,48.2,6.1,113.0,99.0,'11111222,11111222,11144222' 
ADCP,ioos:station:wmo:42887:1,2015-03-01T17:40:00Z,28.1910,-88.4960,48.2,7.2,126.0,99.0,'11111222,11111222,11144222' 
ADCP,ioos:station:wmo:42887:1,2015-03-01T18:00:00Z,28.1910,-88.4960,48.2,8.2,136.0,99.0,'11111222,11111222,11144222' 
ADCP,ioos:station:wmo:42887:1,2015-03-01T18:20:00Z,28.1910,-88.4960,48.2,6.8,135.0,99.0,'11111222,11111222,11144222' 
ADCP,ioos:station:wmo:42887:1,2015-03-01T18:40:00Z,28.1910,-88.4960,48.2,6.1,141.0,99.0,'11111222,11111222,11144222' 
ADCP,ioos:station:wmo:42887:1,2015-03-01T19:00:00Z,28.1910,-88.4960,48.2,6.1,141.0,99.0,'11111222,11111222,11144222' 
ADCP,ioos:station:wmo:42887:1,2015-03-01T19:20:00Z,28.1910,-88.4960,48.2,5.9,141.0,99.0,'11111222,11111222,11144222' 
ADCP,ioos:station:wmo:42887:1,2015-03-01T19:40:00Z,28.1910,-88.4960,48.2,5.4,137.0,99.0,'11111222,11111222,11144222' 
ADCP,ioos:station:wmo:42887:1,2015-03-01T20:00:00Z,28.1910,-88.4960,48.2,6.7,147.0,99.0,'11111222,11111222,11144222' 
ADCP,ioos:station:wmo:42887:1,2015-03-01T20:20:00Z,28.1910,-88.4960,48.2,4.9,138.0,99.0,'11111222,11111222,11144222' 
ADCP,ioos:station:wmo:42887:1,2015-03-01T20:40:00Z,28.1910,-88.4960,48.2,5.4,133.0,99.0,'11111222,11111222,11144222' 
ADCP,ioos:station:wmo:42887:1,2015-03-01T21:00:00Z,28.1910,-88.4960,48.2,5.6,137.0,99.0,'11111222,11111222,11144222' 
ADCP,ioos:station:wmo:42887:1,2015-03-01T21:20:00Z,28.1910,-88.4960,48.2,5.9,130.0,99.0,'11111222,11111222,11144222' 
ADCP,ioos:station:wmo:42887:1,2015-03-01T21:40:00Z,28.1910,-88.4960,48.2,4.9,132.0,99.0,'11111222,11111222,11144222' 
ADCP,ioos:station:wmo:42887:1,2015-03-01T22:00:00Z,28.1910,-88.4960,48.2,4.3,139.0,99.0,'11111222,11111222,11144222' 
ADCP,ioos:station:wmo:42887:1,2015-03-01T22:20:00Z,28.1910,-88.4960,48.2,3.4,136.0,99.0,'11111222,11111222,11144222' 
ADCP,ioos:station:wmo:42887:1,2015-03-01T22:40:00Z,28.1910,-88.4960,48.2,4.0,135.0,99.0,'11111222,11111222,11144222' 
ADCP,ioos:station:wmo:42887:1,2015-03-01T23:00:00Z,28.1910,-88.4960,48.2,3.7,137.0,99.0,'11111222,11111222,11144222' 
ADCP,ioos:station:wmo:42887:1,2015-03-01T23:20:00Z,28.1910,-88.4960,48.2,3.1,136.0,99.0,'11111222,11111222,11144222' 
ADCP,ioos:station:wmo:42887:1,2015-03-01T23:40:00Z,28.1910,-88.4960,48.2,2.6,137.0,99.0,'11111222,11111222,11144222' 
ADCP,ioos:station:wmo:42887:1,2015-03-02T00:00:00Z,28.1910,-88.4960,48.2,2.9,134.0,99.0,'11111222,11111222,11144222' 
ADCP,ioos:station:wmo:42887:1,2015-03-02T00:20:00Z,28.1910,-88.4960,48.2,2.7,137.0,99.0,'11111222,11111222,11144222' 
ADCP,ioos:station:wmo:42887:1,2015-03-02T00:40:00Z,28.1910,-88.4960,48.2,3.4,131.0,99.0,'11111222,11111222,11144222' 
ADCP,ioos:station:wmo:42887:1,2015-03-02T01:00:00Z,28.1910,-88.4960,48.2,3.4,121.0,99.0,'11111222,11111222,11144222' 
ADCP,ioos:station:wmo:42887:1,2015-03-02T01:20:00Z,28.1910,-88.4960,48.2,4.0,96.0,99.0,'11111222,11111222,11144222' 
ADCP,ioos:station:wmo:42887:1,2015-03-02T01:40:00Z,28.1910,-88.4960,48.2,4.5,106.0,99.0,'11111222,11111222,11144222' 
ADCP,ioos:station:wmo:42887:1,2015-03-02T02:00:00Z,28.1910,-88.4960,48.2,5.4,108.0,99.0,'11111222,11111222,11144222' 
ADCP,ioos:station:wmo:42887:1,2015-03-02T02:20:00Z,28.1910,-88.4960,48.2,2.5,128.0,99.0,'11111222,11111222,11144222' 
ADCP,ioos:station:wmo:42887:1,2015-03-02T02:40:00Z,28.1910,-88.4960,48.2,5.1,126.0,99.0,'11111222,11111222,11144222' 
ADCP,ioos:station:wmo:42887:1,2015-03-02T03:00:00Z,28.1910,-88.4960,48.2,4.5,120.0,99.0,'11111222,11111222,11144222' 
ADCP,ioos:station:wmo:42887:1,2015-03-02T03:20:00Z,28.1910,-88.4960,48.2,4.8,126.0,99.0,'11111222,11111222,11144222' 
ADCP,ioos:station:wmo:42887:1,2015-03-02T03:40:00Z,28.1910,-88.4960,48.2,4.8,117.0,99.0,'11111222,11111222,11144222' 
ADCP,ioos:station:wmo:42887:1,2015-03-02T04:00:00Z,28.1910,-88.4960,48.2,5.7,125.0,99.0,'11111222,11111222,11144222' 
ADCP,ioos:station:wmo:42887:1,2015-03-02T04:20:00Z,28.1910,-88.4960,48.2,5.5,125.0,99.0,'11111222,11111222,11144222' 
ADCP,ioos:station:wmo:42887:1,2015-03-02T04:40:00Z,28.1910,-88.4960,48.2,5.2,118.0,99.0,'11111222,11111222,11144222' 
ADCP,ioos:station:wmo:42887:1,2015-03-02T05:00:00Z,28.1910,-88.4960,48.2,4.5,109.0,99.0,'11111222,11111222,11144222' 
ADCP,ioos:station:wmo:42887:1,2015-03-02T05:20:00Z,28.1910,-88.4960,48.2,4.0,108.0,99.0,'11111222,11111222,11144222' 
ADCP,ioos:station:wmo:42887:1,2015-03-02T05:40:00Z,28.1910,-88.4960,48.2,4.5,121.0,99.0,'11111222,11111222,11144222' 
ADCP,ioos:station:wmo:42887:1,2015-03-02T06:00:00Z,28.1910,-88.4960,48.2,3.0,123.0,99.0,'11111222,11111222,11144222' 
ADCP,ioos:station:wmo:42887:1,2015-03-02T06:20:00Z,28.1910,-88.4960,48.2,2.2,128.0,99.0,'11111222,11111222,11144222' 
ADCP,ioos:station:wmo:42887:1,2015-03-02T06:40:00Z,28.1910,-88.4960,48.2,3.8,121.0,99.0,'11111222,11111222,11144222' 
ADCP,ioos:station:wmo:42887:1,2015-03-02T07:00:00Z,28.1910,-88.4960,48.2,4.2,120.0,99.0,'11111222,11111222,11144222' 
ADCP,ioos:station:wmo:42887:1,2015-03-02T07:20:00Z,28.1910,-88.4960,48.2,2.5,94.0,99.0,'11111222,11111222,11144222' 
ADCP,ioos:station:wmo:42887:1,2015-03-02T07:40:00Z,28.1910,-88.4960,48.2,2.1,86.0,99.0,'11111222,11111222,11144222' 
ADCP,ioos:station:wmo:42887:1,2015-03-02T08:00:00Z,28.1910,-88.4960,48.2,4.5,89.0,99.0,'11111222,11111222,11144222' 
ADCP,ioos:station:wmo:42887:1,2015-03-02T08:20:00Z,28.1910,-88.4960,48.2,4.4,88.0,99.0,'11111222,11111222,11144222' 
ADCP,ioos:station:wmo:42887:1,2015-03-02T08:40:00Z,28.1910,-88.4960,48.2,4.0,90.0,99.0,'11111222,11111222,11144222' 
ADCP,ioos:station:wmo:42887:1,2015-03-02T09:00:00Z,28.1910,-88.4960,48.2,4.7,93.0,99.0,'11111222,11111222,11144222' 
ADCP,ioos:station:wmo:42887:1,2015-03-02T09:20:00Z,28.1910,-88.4960,48.2,4.2,91.0,99.0,'11111222,11111222,11144222' 
ADCP,ioos:station:wmo:42887:1,2015-03-02T09:40:00Z,28.1910,-88.4960,48.2,3.6,105.0,99.0,'11111222,11111222,11144222' 
ADCP,ioos:station:wmo:42887:1,2015-03-02T10:00:00Z,28.1910,-88.4960,48.2,4.1,96.0,99.0,'11111222,11111222,11144222' 
ADCP,ioos:station:wmo:42887:1,2015-03-02T10:20:00Z,28.1910,-88.4960,48.2,4.6,97.0,99.0,'11111222,11111222,11144222' 
ADCP,ioos:station:wmo:42887:1,2015-03-02T10:40:00Z,28.1910,-88.4960,48.2,5.2,107.0,99.0,'11111222,11111222,11144222' 
ADCP,ioos:station:wmo:42887:1,2015-03-02T11:00:00Z,28.1910,-88.4960,48.2,5.5,127.0,99.0,'11111222,11111222,11144222' 
ADCP,ioos:station:wmo:42887:1,2015-03-02T11:20:00Z,28.1910,-88.4960,48.2,6.1,112.0,99.0,'11111222,11111222,11144222' 
ADCP,ioos:station:wmo:42887:1,2015-03-02T11:40:00Z,28.1910,-88.4960,48.2,5.9,122.0,99.0,'11111222,11111222,11144222' 
ADCP,ioos:station:wmo:42887:1,2015-03-02T12:00:00Z,28.1910,-88.4960,48.2,6.5,113.0,99.0,'11111222,11111222,11144222' 
ADCP,ioos:station:wmo:42887:1,2015-03-02T12:20:00Z,28.1910,-88.4960,48.2,6.5,131.0,99.0,'11111222,11111222,11144222' 
ADCP,ioos:station:wmo:42887:1,2015-03-02T12:40:00Z,28.1910,-88.4960,48.2,6.7,135.0,99.0,'11111222,11111222,11144222' 
ADCP,ioos:station:wmo:42887:1,2015-03-02T13:00:00Z,28.1910,-88.4960,48.2,5.4,124.0,99.0,'11111222,11111222,11144222' 
ADCP,ioos:station:wmo:42887:1,2015-03-02T13:20:00Z,28.1910,-88.4960,48.2,6.0,125.0,99.0,'11111222,11111222,11144222' 
ADCP,ioos:station:wmo:42887:1,2015-03-02T13:40:00Z,28.1910,-88.4960,48.2,6.5,108.0,99.0,'11111222,11111222,11144222' 
ADCP,ioos:station:wmo:42887:1,2015-03-02T14:00:00Z,28.1910,-88.4960,48.2,6.0,112.0,99.0,'11111222,11111222,11144222' 
ADCP,ioos:station:wmo:42887:1,2015-03-02T14:20:00Z,28.1910,-88.4960,48.2,6.4,115.0,99.0,'11111222,11111222,11144222' 
ADCP,ioos:station:wmo:42887:1,2015-03-02T14:40:00Z,28.1910,-88.4960,48.2,5.1,116.0,99.0,'11111222,11111222,11144222' 
ADCP,ioos:station:wmo:42887:1,2015-03-02T15:00:00Z,28.1910,-88.4960,48.2,4.6,116.0,99.0,'11111222,11111222,11144222' 
ADCP,ioos:station:wmo:42887:1,2015-03-02T15:20:00Z,28.1910,-88.4960,48.2,3.7,132.0,99.0,'11111222,11111222,11144222' 
ADCP,ioos:station:wmo:42887:1,2015-03-02T15:40:00Z,28.1910,-88.4960,48.2,3.8,135.0,99.0,'11111222,11111222,11144222' 
ADCP,ioos:station:wmo:42887:1,2015-03-02T16:00:00Z,28.1910,-88.4960,48.2,5.0,139.0,99.0,'11111222,11111222,11144222' 
ADCP,ioos:station:wmo:42887:1,2015-03-02T16:20:00Z,28.1910,-88.4960,48.2,5.2,136.0,99.0,'11111222,11111222,11144222' 
ADCP,ioos:station:wmo:42887:1,2015-03-02T16:40:00Z,28.1910,-88.4960,48.2,5.1,138.0,99.0,'11111222,11111222,11144222' 
ADCP,ioos:station:wmo:42887:1,2015-03-02T17:00:00Z,28.1910,-88.4960,48.2,5.2,155.0,99.0,'11111222,11111222,11144222' 
ADCP,ioos:station:wmo:42887:1,2015-03-02T17:20:00Z,28.1910,-88.4960,48.2,4.3,159.0,99.0,'11111222,11111222,11144222' 
ADCP,ioos:station:wmo:42887:1,2015-03-02T17:40:00Z,28.1910,-88.4960,48.2,4.4,149.0,99.0,'11111222,11111222,11144222' 
ADCP,ioos:station:wmo:42887:1,2015-03-02T18:00:00Z,28.1910,-88.4960,48.2,2.5,157.0,99.0,'11111222,11111222,11144222' 
ADCP,ioos:station:wmo:42887:1,2015-03-02T18:20:00Z,28.1910,-88.4960,48.2,3.3,152.0,99.0,'11111222,11111222,11144222' 
ADCP,ioos:station:wmo:42887:1,2015-03-02T18:40:00Z,28.1910,-88.4960,48.2,3.1,152.0,99.0,'11111222,11111222,11144222' 
ADCP,ioos:station:wmo:42887:1,2015-03-02T19:00:00Z,28.1910,-88.4960,48.2,2.7,157.0,99.0,'11111222,11111222,11144222' 
ADCP,ioos:station:wmo:42887:1,2015-03-02T19:20:00Z,28.1910,-88.4960,48.2,2.3,137.0,99.0,'11111222,11111222,11144222' 
ADCP,ioos:station:wmo:42887:1,2015-03-02T19:40:00Z,28.1910,-88.4960,48.2,2.4,148.0,99.0,'11111222,11111222,11144222' 
ADCP,ioos:station:wmo:42887:1,2015-03-02T20:00:00Z,28.1910,-88.4960,48.2,1.4,135.0,99.0,'11111222,11111222,11144222' 
ADCP,ioos:station:wmo:42887:1,2015-03-02T20:20:00Z,28.1910,-88.4960,48.2,2.5,160.0,99.0,'11111222,11111222,11144222' 
ADCP,ioos:station:wmo:42887:1,2015-03-02T20:40:00Z,28.1910,-88.4960,48.2,2.2,138.0,99.0,'11111222,11111222,11144222' 
ADCP,ioos:station:wmo:42887:1,2015-03-02T21:00:00Z,28.1910,-88.4960,48.2,2.1,135.0,99.0,'11111222,11111222,11144222' 
ADCP,ioos:station:wmo:42887:1,2015-03-02T21:20:00Z,28.1910,-88.4960,48.2,2.8,139.0,99.0,'11111222,11111222,11144222' 
ADCP,ioos:station:wmo:42887:1,2015-03-02T21:40:00Z,28.1910,-88.4960,48.2,1.2,107.0,99.0,'11111222,11111222,11144222' 
ADCP,ioos:station:wmo:42887:1,2015-03-02T22:00:00Z,28.1910,-88.4960,48.2,2.2,116.0,99.0,'11111222,11111222,11144222' 
ADCP,ioos:station:wmo:42887:1,2015-03-02T22:20:00Z,28.1910,-88.4960,48.2,2.6,118.0,99.0,'11111222,11111222,11144222' 
ADCP,ioos:station:wmo:42887:1,2015-03-02T22:40:00Z,28.1910,-88.4960,48.2,2.2,136.0,99.0,'11111222,11111222,11144222' 
ADCP,ioos:station:wmo:42887:1,2015-03-02T23:00:00Z,28.1910,-88.4960,48.2,2.5,116.0,99.0,'11111222,11111222,11144222' 
ADCP,ioos:station:wmo:42887:1,2015-03-02T23:20:00Z,28.1910,-88.4960,48.2,2.1,105.0,99.0,'11111222,11111222,11144222' 
ADCP,ioos:station:wmo:42887:1,2015-03-02T23:40:00Z,28.1910,-88.4960,48.2,2.2,129.0,99.0,'11111222,11111222,11144222' 
ADCP,ioos:station:wmo:42887:1,2015-03-03T00:00:00Z,28.1910,-88.4960,48.2,2.3,86.0,99.0,'11111222,11111222,11144222' 
ADCP,ioos:station:wmo:42887:1,2015-03-03T00:20:00Z,28.1910,-88.4960,48.2,2.7,86.0,99.0,'11111222,11111222,11144222' 
ADCP,ioos:station:wmo:42887:1,2015-03-03T00:40:00Z,28.1910,-88.4960,48.2,2.8,85.0,99.0,'11111222,11111222,11144222' 
ADCP,ioos:station:wmo:42887:1,2015-03-03T01:00:00Z,28.1910,-88.4960,48.2,3.6,90.0,99.0,'11111222,11111222,11144222' 
ADCP,ioos:station:wmo:42887:1,2015-03-03T01:20:00Z,28.1910,-88.4960,48.2,3.5,120.0,99.0,'11111222,11111222,11144222' 
ADCP,ioos:station:wmo:42887:1,2015-03-03T01:40:00Z,28.1910,-88.4960,48.2,2.1,90.0,99.0,'11111222,11111222,11144222' 
ADCP,ioos:station:wmo:42887:1,2015-03-03T02:00:00Z,28.1910,-88.4960,48.2,2.9,114.0,99.0,'11111222,11111222,11144222' 
ADCP,ioos:station:wmo:42887:1,2015-03-03T02:20:00Z,28.1910,-88.4960,48.2,3.7,109.0,99.0,'11111222,11111222,11144222' 
ADCP,ioos:station:wmo:42887:1,2015-03-03T02:40:00Z,28.1910,-88.4960,48.2,3.0,117.0,99.0,'11111222,11111222,11144222' 
ADCP,ioos:station:wmo:42887:1,2015-03-03T03:00:00Z,28.1910,-88.4960,48.2,2.5,136.0,99.0,'11111222,11111222,11144222' 
ADCP,ioos:station:wmo:42887:1,2015-03-03T03:20:00Z,28.1910,-88.4960,48.2,3.3,112.0,99.0,'11111222,11111222,11144222' 
ADCP,ioos:station:wmo:42887:1,2015-03-03T03:40:00Z,28.1910,-88.4960,48.2,3.3,106.0,99.0,'11111222,11111222,11144222' 
ADCP,ioos:station:wmo:42887:1,2015-03-03T04:00:00Z,28.1910,-88.4960,48.2,1.5,111.0,99.0,'11111222,11111222,11144222' 
ADCP,ioos:station:wmo:42887:1,2015-03-03T04:20:00Z,28.1910,-88.4960,48.2,3.1,113.0,99.0,'11111222,11111222,11144222' 
ADCP,ioos:station:wmo:42887:1,2015-03-03T04:40:00Z,28.1910,-88.4960,48.2,1.9,90.0,99.0,'11111222,11111222,11144222' 
ADCP,ioos:station:wmo:42887:1,2015-03-03T05:00:00Z,28.1910,-88.4960,48.2,2.6,115.0,99.0,'11111222,11111222,11144222' 
ADCP,ioos:station:wmo:42887:1,2015-03-03T05:20:00Z,28.1910,-88.4960,48.2,3.3,107.0,99.0,'11111222,11111222,11144222' 
ADCP,ioos:station:wmo:42887:1,2015-03-03T05:40:00Z,28.1910,-88.4960,48.2,3.6,116.0,99.0,'11111222,11111222,11144222' 
ADCP,ioos:station:wmo:42887:1,2015-03-03T06:00:00Z,28.1910,-88.4960,48.2,4.2,137.0,99.0,'11111222,11111222,11144222' 
ADCP,ioos:station:wmo:42887:1,2015-03-03T06:20:00Z,28.1910,-88.4960,48.2,3.7,124.0,99.0,'11111222,11111222,11144222' 
ADCP,ioos:station:wmo:42887:1,2015-03-03T06:40:00Z,28.1910,-88.4960,48.2,5.0,118.0,99.0,'11111222,11111222,11144222' 
ADCP,ioos:station:wmo:42887:1,2015-03-03T07:00:00Z,28.1910,-88.4960,48.2,3.6,127.0,99.0,'11111222,11111222,11144222' 
ADCP,ioos:station:wmo:42887:1,2015-03-03T07:20:00Z,28.1910,-88.4960,48.2,3.7,124.0,99.0,'11111222,11111222,11144222' 
ADCP,ioos:station:wmo:42887:1,2015-03-03T07:40:00Z,28.1910,-88.4960,48.2,5.1,122.0,99.0,'11111222,11111222,11144222' 
ADCP,ioos:station:wmo:42887:1,2015-03-03T08:00:00Z,28.1910,-88.4960,48.2,4.1,131.0,99.0,'11111222,11111222,11144222' 
ADCP,ioos:station:wmo:42887:1,2015-03-03T08:20:00Z,28.1910,-88.4960,48.2,2.7,112.0,99.0,'11111222,11111222,11144222' 
ADCP,ioos:station:wmo:42887:1,2015-03-03T08:40:00Z,28.1910,-88.4960,48.2,5.5,128.0,99.0,'11111222,11111222,11144222' 
ADCP,ioos:station:wmo:42887:1,2015-03-03T09:00:00Z,28.1910,-88.4960,48.2,4.1,135.0,99.0,'11111222,11111222,11144222' 
ADCP,ioos:station:wmo:42887:1,2015-03-03T09:20:00Z,28.1910,-88.4960,48.2,5.5,117.0,99.0,'11111222,11111222,11144222' 
ADCP,ioos:station:wmo:42887:1,2015-03-03T09:40:00Z,28.1910,-88.4960,48.2,4.4,129.0,99.0,'11111222,11111222,11144222' 
ADCP,ioos:station:wmo:42887:1,2015-03-03T10:00:00Z,28.1910,-88.4960,48.2,5.7,131.0,99.0,'11111222,11111222,11144222' 
ADCP,ioos:station:wmo:42887:1,2015-03-03T10:20:00Z,28.1910,-88.4960,48.2,3.6,129.0,99.0,'11111222,11111222,11144222' 
ADCP,ioos:station:wmo:42887:1,2015-03-03T10:40:00Z,28.1910,-88.4960,48.2,4.5,132.0,99.0,'11111222,11111222,11144222' 
ADCP,ioos:station:wmo:42887:1,2015-03-03T11:00:00Z,28.1910,-88.4960,48.2,3.0,128.0,99.0,'11111222,11111222,11144222' 
ADCP,ioos:station:wmo:42887:1,2015-03-03T11:20:00Z,28.1910,-88.4960,48.2,4.4,137.0,99.0,'11111222,11111222,11144222' 
ADCP,ioos:station:wmo:42887:1,2015-03-03T11:40:00Z,28.1910,-88.4960,48.2,4.6,142.0,99.0,'11111222,11111222,11144222' 
ADCP,ioos:station:wmo:42887:1,2015-03-03T12:00:00Z,28.1910,-88.4960,48.2,3.8,127.0,99.0,'11111222,11111222,11144222' 
ADCP,ioos:station:wmo:42887:1,2015-03-03T12:20:00Z,28.1910,-88.4960,48.2,4.4,124.0,99.0,'11111222,11111222,11144222' 
ADCP,ioos:station:wmo:42887:1,2015-03-03T12:40:00Z,28.1910,-88.4960,48.2,5.8,128.0,99.0,'11111222,11111222,11144222' 
ADCP,ioos:station:wmo:42887:1,2015-03-03T13:00:00Z,28.1910,-88.4960,48.2,4.0,124.0,99.0,'11111222,11111222,11144222' 
ADCP,ioos:station:wmo:42887:1,2015-03-03T13:20:00Z,28.1910,-88.4960,48.2,5.2,138.0,99.0,'11111222,11111222,11144222' 
ADCP,ioos:station:wmo:42887:1,2015-03-03T13:40:00Z,28.1910,-88.4960,48.2,4.1,136.0,99.0,'11111222,11111222,11144222' 
ADCP,ioos:station:wmo:42887:1,2015-03-03T14:00:00Z,28.1910,-88.4960,48.2,6.8,135.0,99.0,'11111222,11111222,11144222' 
ADCP,ioos:station:wmo:42887:1,2015-03-03T14:20:00Z,28.1910,-88.4960,48.2,5.2,136.0,99.0,'11111222,11111222,11144222' 
ADCP,ioos:station:wmo:42887:1,2015-03-03T14:40:00Z,28.1910,-88.4960,48.2,6.5,125.0,99.0,'11111222,11111222,11144222' 
ADCP,ioos:station:wmo:42887:1,2015-03-03T15:00:00Z,28.1910,-88.4960,48.2,6.9,138.0,99.0,'11111222,11111222,11144222' 
ADCP,ioos:station:wmo:42887:1,2015-03-03T15:20:00Z,28.1910,-88.4960,48.2,4.7,140.0,99.0,'11111222,11111222,11144222' 
ADCP,ioos:station:wmo:42887:1,2015-03-03T15:40:00Z,28.1910,-88.4960,48.2,7.4,138.0,99.0,'11111222,11111222,11144222' 
ADCP,ioos:station:wmo:42887:1,2015-03-03T16:00:00Z,28.1910,-88.4960,48.2,7.6,151.0,99.0,'11111222,11111222,11144222' 
ADCP,ioos:station:wmo:42887:1,2015-03-03T16:20:00Z,28.1910,-88.4960,48.2,7.2,160.0,99.0,'11111222,11111222,11144222' 
ADCP,ioos:station:wmo:42887:1,2015-03-03T16:40:00Z,28.1910,-88.4960,48.2,6.5,141.0,99.0,'11111222,11111222,11144222' 
ADCP,ioos:station:wmo:42887:1,2015-03-03T17:00:00Z,28.1910,-88.4960,48.2,8.3,146.0,99.0,'11111222,11111222,11144222' 
ADCP,ioos:station:wmo:42887:1,2015-03-03T17:20:00Z,28.1910,-88.4960,48.2,6.9,139.0,99.0,'11111222,11111222,11144222' 
ADCP,ioos:station:wmo:42887:1,2015-03-03T17:40:00Z,28.1910,-88.4960,48.2,6.3,149.0,99.0,'11111222,11111222,11144222' 
ADCP,ioos:station:wmo:42887:1,2015-03-03T18:00:00Z,28.1910,-88.4960,48.2,6.6,140.0,99.0,'11111222,11111222,11144222' 
ADCP,ioos:station:wmo:42887:1,2015-03-03T18:20:00Z,28.1910,-88.4960,48.2,6.9,139.0,99.0,'11111222,11111222,11144222' 
ADCP,ioos:station:wmo:42887:1,2015-03-03T18:40:00Z,28.1910,-88.4960,48.2,4.5,148.0,99.0,'11111222,11111222,11144222' 
ADCP,ioos:station:wmo:42887:1,2015-03-03T19:00:00Z,28.1910,-88.4960,48.2,3.7,144.0,99.0,'11111222,11111222,11144222' 